Regional Weather Roundup
Issued by NWS New Orleans/Baton Rouge, LA

Current Version | Previous Version | Text Only | Print | Product List | Glossary On
Versions: 1 2 3 4 5 6 7 8 9 10 11 12 13 14 15 16 17 18 19 20 21 22 23 24 25 26 27 28 29 30 31 32 33 34 35 36 37 38 39 40 41 42 43 44 45 46 47 48 49 50
000
ASUS44 KLIX 041411
RWRLIX
NEW ORLEANS REGIONAL WEATHER ROUNDUP
NATIONAL WEATHER SERVICE NEW ORLEANS LA
900 AM CDT WED MAY 04 2016

NOTE: "FAIR" INDICATES FEW OR NO CLOUDS BELOW 12,000 FEET WITH NO
      SIGNIFICANT WEATHER AND/OR OBSTRUCTIONS TO VISIBILITY.
      SKY/WX - SKY CONDITION AND SIGNIFICANT WEATHER.
      TMP - AIR TEMPERATURE.     DP    - DEWPOINT TEMPERATURE.
      RH  - RELATIVE HUMIDITY.   PRES  - PRESSURE.
      HI  - HEAT INDEX.          WCI   - WIND CHILL INDEX.

*  THESE STATIONS ARE NOT NWS OR FAA STATIONS AND ARE NOT UNDER
   NWS QUALITY CONTROL.

LAZ038-040-048-061>063-065>067-069-041500-
SOUTHEAST LOUISIANA

CITY           SKY/WX    TMP DP  RH WIND       PRES   REMARKS
N.O. AUDUBON   NOT AVBL
N.O. INTL ARPT MOSUNNY   69  49  48 N17G23    29.97S
N.O. LAKEFRONT SUNNY     64  51  62 N21       29.98S
N.O. DOWNTOWN*   N/A     67  47  48 N9G21     29.98S
RESERVE*         N/A     69  49  48 N8G17     29.99S
SLIDELL        SUNNY     64  51  62 N10       29.96S
BATON ROUGE    SUNNY     64  50  60 NW7       30.00R
BOOTHVILLE     SUNNY     66  50  56 N15G25    29.96R
BELLE CHASSE   MOSUNNY   67  49  52 N10G17    29.97S
BOGALUSA*        N/A     65  52  61 N8        29.99R
GALLIANO*      SUNNY     68  52  55 N12G22    29.97S
NEW ROADS*       N/A     64  56  76 NW3       30.01S
GONZALES*        N/A     64  49  57 N7        29.99R
HAMMOND*       CLOUDY    66  50  55 N10       29.98F
HOUMA*         SUNNY     64  52  63 N14       29.98F
PORT FOURCHON* MOSUNNY   68  52  56 N16G23    29.98R

$$

MSZ070-080>082-041500-
SOUTHERN MISSISSIPPI

CITY           SKY/WX    TMP DP  RH WIND       PRES   REMARKS
MCCOMB         PTSUNNY   63  51  65 NW8       29.98F
GULFPORT       SUNNY     64  49  57 N16G24    29.93R
BILOXI         SUNNY     64  51  60 N12       29.93R
PASCAGOULA     MOSUNNY   64  51  62 N13       29.93R
STENNIS ARPT*  SUNNY     63  45  51 N12       29.96R

$$

COASTAL OBSERVATIONS
LAKE AND NEARSHORE STATIONS

STATION/POSITION TIME  TEMP    WIND        PRES    WAVE
                       AIR SEA DIR/SP/G            HT/PER
                 (UTC) (F)     (DEG/KT/KT) (MB)    (FT/S)
PASCAGOULA       1300   62     360/ 12/ 17 1012.5
WAVELAND YACHT   1300   61 70  360/ 14/ 19 1013.6
GRAND ISLE       1300   66 74   10/ 19/ 26 1014.2
SOUTHWEST PASS   1300           10/ 25/ 27   N/A
NEW CANAL        1300   65 73  360/ 15/ 19 1014.1
SHELL BEACH      1300   63 73  350/ 19/ 22 1014.5

OFFSHORE STATIONS

STATION/POSITION TIME  TEMP    WIND        PRES    WAVE
                       AIR SEA DIR/SP/G            HT/PER
                 (UTC) (F)     (DEG/KT/KT) (MB)    (FT/S)
64 S DAUPHIN ISL 1300   69 76  360/ 21/ 25 1012.5

$$




USA.gov is the U.S. government's official web portal to all federal, state and local government web resources and services.